When you browse on this site, cookies collect data to enhance your experience and personalize the content and advertising you see.
Visit our Privacy Policy to learn more. By continuing to use the site, you agree to this use of cookies and data.
  • en Suisse
  • Liste des pays
  • À 7 jours
  • Température de l'eau
  • Carte satellitaire
  • Carte météo
  • Widgets météo
  • user-avatar
    Se connecter

    Météo par heure à Kalgoorlie

    Ce jour, 22 Mars, Vendredi

    Heure Température Précipitation Vent Pression Humidité
    00:00 +27°C° 0 mm 2 m/s 727 mmHg 51%
    01:00 +27°C° 0 mm 2 m/s 727 mmHg 53%
    02:00 +25°C° 0 mm 1 m/s 727 mmHg 53%
    03:00 +25°C° 0 mm 2 m/s 727 mmHg 57%
    04:00 +25°C° 0 mm 3 m/s 727 mmHg 61%
    05:00 +24°C° 0 mm 3 m/s 727 mmHg 65%
    06:00 +25°C° 0 mm 3 m/s 727 mmHg 59%
    07:00 +26°C° 0 mm 4 m/s 727 mmHg 54%
    08:00 +28°C° 0 mm 4 m/s 728 mmHg 49%
    09:00 +29°C° 0 mm 4 m/s 727 mmHg 43%
    10:00 +32°C° 0 mm 4 m/s 727 mmHg 38%
    11:00 +33°C° 0 mm 4 m/s 727 mmHg 32%
    12:00 +34°C° 0 mm 3 m/s 726 mmHg 29%
    13:00 +35°C° 0 mm 3 m/s 726 mmHg 27%
    14:00 +35°C° 0 mm 2 m/s 726 mmHg 27%
    15:00 +35°C° 0 mm 2 m/s 726 mmHg 26%
    16:00 +35°C° 0 mm 2 m/s 726 mmHg 26%
    17:00 +35°C° 0 mm 2 m/s 726 mmHg 25%
    18:00 +34°C° 0 mm 4 m/s 726 mmHg 29%
    19:00 +34°C° 0 mm 5 m/s 726 mmHg 33%
    20:00 +33°C° 0 mm 6 m/s 727 mmHg 37%
    21:00 +29°C° 0.5 mm 7 m/s 727 mmHg 52%
    22:00 +26°C° 0.5 mm 8 m/s 727 mmHg 66%
    23:00 +22°C° 0.5 mm 9 m/s 727 mmHg 80%

    Demain, 23 Mars, Samedi

    Heure Température Précipitation Vent Pression Humidité
    00:00 +22°C° 1.6 mm 9 m/s 728 mmHg 79%
    01:00 +21°C° 1.6 mm 9 m/s 728 mmHg 79%
    02:00 +21°C° 1.6 mm 9 m/s 728 mmHg 78%
    03:00 +21°C° 0 mm 9 m/s 728 mmHg 77%
    04:00 +20°C° 0 mm 8 m/s 729 mmHg 76%
    05:00 +20°C° 0 mm 8 m/s 729 mmHg 75%
    06:00 +20°C° 0 mm 8 m/s 729 mmHg 74%
    07:00 +20°C° 0 mm 7 m/s 729 mmHg 73%
    08:00 +20°C° 0 mm 7 m/s 730 mmHg 72%
    09:00 +21°C° 0 mm 7 m/s 730 mmHg 70%
    10:00 +22°C° 0 mm 7 m/s 730 mmHg 67%
    11:00 +22°C° 0 mm 7 m/s 730 mmHg 65%
    12:00 +22°C° 0 mm 7 m/s 729 mmHg 64%
    13:00 +23°C° 0 mm 6 m/s 729 mmHg 63%
    14:00 +23°C° 0 mm 6 m/s 728 mmHg 63%
    15:00 +23°C° 0 mm 6 m/s 728 mmHg 64%
    16:00 +22°C° 0 mm 6 m/s 728 mmHg 64%
    17:00 +22°C° 0 mm 7 m/s 728 mmHg 65%
    18:00 +22°C° 0 mm 6 m/s 728 mmHg 66%
    19:00 +22°C° 0 mm 5 m/s 729 mmHg 66%
    20:00 +21°C° 0 mm 5 m/s 729 mmHg 67%
    21:00 +21°C° 0 mm 4 m/s 729 mmHg 68%
    22:00 +21°C° 0 mm 4 m/s 729 mmHg 69%
    23:00 +20°C° 0 mm 3 m/s 729 mmHg 70%

    Après-demain, 24 Mars, Dimanche

    Heure Température Précipitation Vent Pression Humidité
    00:00 +20°C° 0 mm 3 m/s 729 mmHg 72%
    01:00 +19°C° 0 mm 3 m/s 728 mmHg 74%
    02:00 +19°C° 0 mm 3 m/s 728 mmHg 75%
    03:00 +18°C° 0 mm 3 m/s 728 mmHg 77%
    04:00 +18°C° 0 mm 2 m/s 729 mmHg 79%
    05:00 +17°C° 0 mm 2 m/s 729 mmHg 80%
    06:00 +18°C° 0 mm 2 m/s 729 mmHg 78%
    07:00 +18°C° 0 mm 2 m/s 729 mmHg 76%
    08:00 +19°C° 0 mm 2 m/s 729 mmHg 74%
    09:00 +20°C° 0 mm 3 m/s 729 mmHg 64%
    10:00 +22°C° 0 mm 3 m/s 730 mmHg 54%
    11:00 +23°C° 0 mm 4 m/s 730 mmHg 45%
    12:00 +25°C° 0 mm 4 m/s 729 mmHg 40%
    13:00 +26°C° 0 mm 5 m/s 729 mmHg 35%
    14:00 +27°C° 0 mm 5 m/s 728 mmHg 30%
    15:00 +27°C° 0 mm 5 m/s 728 mmHg 28%
    16:00 +27°C° 0 mm 6 m/s 728 mmHg 27%
    17:00 +27°C° 0 mm 6 m/s 728 mmHg 26%
    18:00 +26°C° 0 mm 7 m/s 728 mmHg 33%
    19:00 +23°C° 0 mm 7 m/s 729 mmHg 39%
    20:00 +22°C° 0 mm 8 m/s 730 mmHg 46%
    21:00 +19°C° 0 mm 9 m/s 730 mmHg 52%
    22:00 +17°C° 0 mm 9 m/s 731 mmHg 58%
    23:00 +16°C° 0 mm 9 m/s 731 mmHg 64%

    25 Mars, Lundi

    Heure Température Précipitation Vent Pression Humidité
    00:00 +15°C° 0 mm 9 m/s 732 mmHg 65%
    01:00 +13°C° 0 mm 8 m/s 732 mmHg 65%
    02:00 +12°C° 0 mm 8 m/s 732 mmHg 66%
    03:00 +12°C° 0 mm 8 m/s 732 mmHg 66%
    04:00 +11°C° 0 mm 7 m/s 732 mmHg 67%
    05:00 +11°C° 0 mm 7 m/s 732 mmHg 68%
    06:00 +11°C° 0 mm 7 m/s 733 mmHg 66%
    07:00 +12°C° 0 mm 7 m/s 734 mmHg 64%
    08:00 +12°C° 0 mm 7 m/s 734 mmHg 63%
    09:00 +15°C° 0 mm 7 m/s 734 mmHg 55%
    10:00 +17°C° 0 mm 7 m/s 734 mmHg 47%
    11:00 +20°C° 0 mm 7 m/s 734 mmHg 40%
    12:00 +21°C° 0 mm 7 m/s 733 mmHg 35%
    13:00 +22°C° 0 mm 7 m/s 733 mmHg 31%
    14:00 +24°C° 0 mm 7 m/s 733 mmHg 27%
    15:00 +24°C° 0 mm 7 m/s 733 mmHg 28%
    16:00 +23°C° 0 mm 7 m/s 733 mmHg 30%
    17:00 +23°C° 0 mm 7 m/s 733 mmHg 31%
    18:00 +22°C° 0 mm 8 m/s 733 mmHg 36%
    19:00 +21°C° 0 mm 8 m/s 734 mmHg 41%
    20:00 +18°C° 0 mm 8 m/s 735 mmHg 46%
    21:00 +18°C° 0 mm 8 m/s 735 mmHg 49%
    22:00 +17°C° 0 mm 8 m/s 735 mmHg 51%
    23:00 +16°C° 0 mm 8 m/s 735 mmHg 54%

    26 Mars, Mardi

    Heure Température Précipitation Vent Pression Humidité
    00:00 +15°C° 0 mm 8 m/s 735 mmHg 57%
    01:00 +15°C° 0 mm 7 m/s 735 mmHg 61%
    02:00 +14°C° 0 mm 7 m/s 735 mmHg 64%
    03:00 +14°C° 0 mm 7 m/s 735 mmHg 66%
    04:00 +14°C° 0 mm 7 m/s 735 mmHg 68%
    05:00 +12°C° 0 mm 7 m/s 735 mmHg 70%
    06:00 +14°C° 0 mm 7 m/s 735 mmHg 67%
    07:00 +14°C° 0 mm 7 m/s 736 mmHg 65%
    08:00 +15°C° 0 mm 8 m/s 736 mmHg 62%
    09:00 +17°C° 0 mm 7 m/s 736 mmHg 56%
    10:00 +18°C° 0 mm 7 m/s 736 mmHg 49%
    11:00 +21°C° 0 mm 7 m/s 735 mmHg 42%
    12:00 +23°C° 0 mm 7 m/s 735 mmHg 38%
    13:00 +24°C° 0 mm 7 m/s 734 mmHg 33%
    14:00 +26°C° 0 mm 6 m/s 733 mmHg 29%
    15:00 +26°C° 0 mm 6 m/s 733 mmHg 29%
    16:00 +26°C° 0 mm 6 m/s 733 mmHg 28%
    17:00 +26°C° 0 mm 6 m/s 733 mmHg 28%
    18:00 +24°C° 0 mm 6 m/s 733 mmHg 30%
    19:00 +23°C° 0 mm 6 m/s 734 mmHg 32%
    20:00 +22°C° 0 mm 6 m/s 734 mmHg 34%
    21:00 +22°C° 0 mm 6 m/s 734 mmHg 36%
    22:00 +21°C° 0 mm 6 m/s 734 mmHg 38%
    23:00 +21°C° 0 mm 6 m/s 734 mmHg 40%

    27 Mars, Mercredi

    Heure Température Précipitation Vent Pression Humidité
    00:00 +20°C° 0 mm 6 m/s 734 mmHg 42%
    01:00 +19°C° 0 mm 5 m/s 733 mmHg 43%
    02:00 +19°C° 0 mm 5 m/s 733 mmHg 44%
    03:00 +19°C° 0 mm 5 m/s 733 mmHg 45%
    04:00 +17°C° 0 mm 5 m/s 733 mmHg 45%
    05:00 +17°C° 0 mm 5 m/s 733 mmHg 46%
    06:00 +19°C° 0 mm 5 m/s 733 mmHg 43%
    07:00 +19°C° 0 mm 5 m/s 733 mmHg 40%
    08:00 +20°C° 0 mm 6 m/s 734 mmHg 38%
    09:00 +22°C° 0 mm 5 m/s 733 mmHg 34%
    10:00 +25°C° 0 mm 5 m/s 733 mmHg 31%
    11:00 +28°C° 0 mm 5 m/s 733 mmHg 27%
    12:00 +29°C° 0 mm 4 m/s 732 mmHg 26%
    13:00 +30°C° 0 mm 3 m/s 731 mmHg 26%
    14:00 +31°C° 0 mm 2 m/s 731 mmHg 26%
    15:00 +31°C° 0 mm 2 m/s 730 mmHg 26%
    16:00 +32°C° 0 mm 1 m/s 730 mmHg 26%
    17:00 +32°C° 0 mm 1 m/s 730 mmHg 26%
    18:00 +31°C° 0 mm 2 m/s 730 mmHg 27%
    19:00 +30°C° 0 mm 3 m/s 731 mmHg 29%
    20:00 +29°C° 0 mm 3 m/s 731 mmHg 30%
    21:00 +29°C° 0 mm 4 m/s 730 mmHg 31%
    22:00 +28°C° 0 mm 5 m/s 730 mmHg 31%
    23:00 +27°C° 0 mm 5 m/s 730 mmHg 32%
    Voir plus